Location: La Comballaz
(46.3780°N, 7.0817°E)
Time: 09:21:17
(UTC+00:00)

POLYITAN 1 - Visible Passes

Search period start: 04 March 2024 00:00
Search period end: 14 March 2024 00:00
Orbit: 558 x 579 km, 98.0° (Epoch: 03 March)

Date Brightness Start Highest point End Pass type
(mag) Time Alt. Az. Time Alt. Az. Time Alt. Az.
04 Mar ? 02:50:06 10° NNE 02:50:22 12° NNE 02:50:22 12° NNE visible
05 Mar ? 02:51:23 10° NNE 02:51:47 13° NNE 02:51:47 13° NNE visible
06 Mar ? 02:52:38 10° NNE 02:53:11 14° NNE 02:53:11 14° NNE visible
07 Mar ? 02:53:52 10° NNE 02:54:36 15° NNE 02:54:36 15° NNE visible
08 Mar ? 02:55:05 10° NNE 02:55:58 16° N 02:55:58 16° N visible
09 Mar ? 02:56:17 10° N 02:57:19 18° N 02:57:19 18° N visible
10 Mar ? 02:57:28 10° N 02:58:39 19° N 02:58:39 19° N visible
11 Mar ? 02:58:37 10° N 02:59:58 20° N 02:59:58 20° N visible
12 Mar ? 02:59:46 10° N 03:01:17 22° N 03:01:17 22° N visible
13 Mar ? 03:00:53 10° N 03:02:33 24° N 03:02:33 24° N visible
